FDX447 FACT-FZAA

Flight info

Callsign FDX447
Flight time N/A
Altitude 35000
Route KODES1A KODES UN186 ATUPI/N0487F340 UN186 VEDRY UT943 UNLOK/N0488F350 UT943 IMVEX/N0485F360 UT943 ANTUX/N0488F350 DCT OGNIK OGNIK2A
Aircraft B77L/H-SDE1E2E3FGHIJ2J3J4J5M1RWXY/LB1D1

Departure

Time N/A
Airport Cape Town International Airport (FACT)

Arrival

Time 2026-04-17 18:37
Airport Ndjili International Airport (FZAA)
Time Latitude Longitude Altitude Speed Heading
2026-04-17 14:47 -32.50595 18.63744 34838 ft 430 kts 342°
2026-04-17 14:47 -32.47592 18.63193 34840 ft 430 kts 342°
2026-04-17 14:48 -32.41601 18.62095 34839 ft 427 kts 343°
2026-04-17 14:48 -32.35598 18.60994 34839 ft 431 kts 342°
2026-04-17 14:49 -32.29635 18.59905 34835 ft 431 kts 342°
2026-04-17 14:49 -32.23725 18.58827 34835 ft 428 kts 342°
2026-04-17 14:50 -32.17776 18.57740 34834 ft 431 kts 342°
2026-04-17 14:50 -32.11815 18.56656 34842 ft 429 kts 342°
2026-04-17 14:51 -32.05960 18.55592 34847 ft 430 kts 342°
2026-04-17 14:51 -32.00037 18.54515 34838 ft 430 kts 342°
2026-04-17 14:52 -31.94130 18.53444 34844 ft 431 kts 342°
2026-04-17 14:52 -31.88200 18.52372 34852 ft 429 kts 342°
2026-04-17 14:53 -31.82241 18.51291 34851 ft 432 kts 342°
2026-04-17 14:53 -31.76300 18.50218 34863 ft 432 kts 342°
2026-04-17 14:54 -31.70351 18.49146 34854 ft 430 kts 342°
2026-04-17 14:54 -31.64443 18.48079 34861 ft 433 kts 342°
2026-04-17 14:55 -31.58486 18.47011 34861 ft 429 kts 342°
2026-04-17 14:55 -31.52510 18.45932 34866 ft 438 kts 342°
2026-04-17 14:56 -31.46543 18.44866 34867 ft 431 kts 342°
2026-04-17 14:56 -31.40566 18.43792 34859 ft 435 kts 342°
2026-04-17 14:57 -31.34586 18.42722 34857 ft 434 kts 342°
2026-04-17 14:57 -31.28529 18.41637 34849 ft 438 kts 342°
2026-04-17 14:58 -31.22523 18.40568 34858 ft 434 kts 342°
2026-04-17 14:58 -31.16517 18.39493 34849 ft 440 kts 342°
2026-04-17 14:59 -31.10500 18.38424 34853 ft 435 kts 342°
2026-04-17 14:59 -31.04463 18.37349 34843 ft 436 kts 342°
2026-04-17 15:00 -30.98432 18.36276 34853 ft 439 kts 342°
2026-04-17 15:00 -30.92412 18.35211 34850 ft 435 kts 342°
2026-04-17 15:01 -30.86340 18.34131 34877 ft 442 kts 342°
2026-04-17 15:01 -30.80311 18.33066 34878 ft 435 kts 342°
2026-04-17 15:02 -30.74296 18.32000 34880 ft 437 kts 342°
2026-04-17 15:02 -30.68269 18.30936 34898 ft 436 kts 342°
2026-04-17 15:03 -30.62214 18.29866 34904 ft 441 kts 342°
2026-04-17 15:03 -30.56187 18.28807 34903 ft 436 kts 342°
2026-04-17 15:04 -30.50143 18.27743 34908 ft 438 kts 342°
2026-04-17 15:04 -30.44111 18.26682 34911 ft 441 kts 342°
2026-04-17 15:05 -30.38027 18.25614 34906 ft 438 kts 343°
2026-04-17 15:05 -30.31979 18.24553 34909 ft 440 kts 342°
2026-04-17 15:06 -30.25897 18.23489 34906 ft 440 kts 342°
2026-04-17 15:06 -30.19869 18.22436 34896 ft 437 kts 343°
2026-04-17 15:07 -30.13823 18.21378 34892 ft 441 kts 343°
2026-04-17 15:07 -30.07766 18.20325 34899 ft 438 kts 343°
2026-04-17 15:08 -30.01911 18.19297 34894 ft 438 kts 343°
2026-04-17 15:08 -29.95878 18.18236 34897 ft 438 kts 343°
2026-04-17 15:09 -29.89859 18.17205 34907 ft 438 kts 343°
2026-04-17 15:09 -29.83821 18.16164 34934 ft 437 kts 343°
2026-04-17 15:10 -29.77808 18.15125 34937 ft 441 kts 343°
2026-04-17 15:11 -29.68712 18.13553 34938 ft 441 kts 343°
2026-04-17 15:11 -29.62645 18.12526 34925 ft 439 kts 343°
2026-04-17 15:12 -29.56592 18.11460 34923 ft 438 kts 343°
2026-04-17 15:12 -29.50543 18.10419 34929 ft 440 kts 344°
2026-04-17 15:13 -29.44518 18.09374 34928 ft 440 kts 343°
2026-04-17 15:13 -29.38447 18.08333 34913 ft 441 kts 343°
2026-04-17 15:14 -29.32387 18.07288 34916 ft 441 kts 343°
2026-04-17 15:14 -29.26309 18.06239 34919 ft 442 kts 344°
2026-04-17 15:15 -29.20233 18.05186 34924 ft 438 kts 344°
2026-04-17 15:15 -29.14196 18.04156 34927 ft 443 kts 343°
2026-04-17 15:16 -29.08115 18.03117 34926 ft 439 kts 343°
2026-04-17 15:16 -29.02006 18.02072 34925 ft 445 kts 344°
2026-04-17 15:17 -28.95923 18.01026 34917 ft 444 kts 343°
2026-04-17 15:17 -28.89817 17.99999 34921 ft 440 kts 343°
2026-04-17 15:18 -28.83745 17.98974 34932 ft 437 kts 343°
2026-04-17 15:18 -28.77733 17.97953 34928 ft 440 kts 343°
2026-04-17 15:19 -28.71684 17.96930 34931 ft 436 kts 343°
2026-04-17 15:19 -28.65649 17.95905 34925 ft 438 kts 342°
2026-04-17 15:20 -28.59656 17.94893 34936 ft 435 kts 342°
2026-04-17 15:20 -28.53663 17.93880 34932 ft 431 kts 342°
2026-04-17 15:21 -28.47677 17.92866 34931 ft 435 kts 342°
2026-04-17 15:21 -28.41702 17.91860 34940 ft 435 kts 342°
2026-04-17 15:22 -28.35764 17.90860 34935 ft 429 kts 341°
2026-04-17 15:22 -28.29855 17.89863 34937 ft 429 kts 342°
2026-04-17 15:23 -28.23904 17.88860 34930 ft 432 kts 341°
2026-04-17 15:23 -28.17844 17.88327 34939 ft 435 kts 346°
2026-04-17 15:24 -28.11768 17.87904 34941 ft 437 kts 345°
2026-04-17 15:24 -28.05726 17.87465 34940 ft 432 kts 345°
2026-04-17 15:25 -27.99662 17.87008 34937 ft 433 kts 345°
2026-04-17 15:25 -27.93669 17.86549 34939 ft 433 kts 345°
2026-04-17 15:26 -27.87636 17.86080 34955 ft 436 kts 345°
2026-04-17 15:26 -27.81566 17.85610 34947 ft 434 kts 345°
2026-04-17 15:27 -27.75515 17.85138 34949 ft 441 kts 345°
2026-04-17 15:27 -27.69422 17.84669 34947 ft 434 kts 345°
2026-04-17 15:28 -27.63318 17.84192 34965 ft 439 kts 345°
2026-04-17 15:28 -27.57238 17.83723 34961 ft 437 kts 345°
2026-04-17 15:29 -27.51160 17.83249 34959 ft 441 kts 345°
2026-04-17 15:29 -27.45116 17.82329 34946 ft 433 kts 340°
2026-04-17 15:30 -27.39165 17.81285 34940 ft 436 kts 341°
2026-04-17 15:30 -27.33190 17.80268 34940 ft 434 kts 341°
2026-04-17 15:31 -27.27218 17.79262 34940 ft 437 kts 341°
2026-04-17 15:31 -27.21175 17.78252 34944 ft 437 kts 341°
2026-04-17 15:32 -27.15127 17.77244 34951 ft 441 kts 341°
2026-04-17 15:32 -27.09117 17.76245 34937 ft 436 kts 341°
2026-04-17 15:33 -27.03092 17.75243 34935 ft 439 kts 341°
2026-04-17 15:33 -26.97045 17.74244 34937 ft 437 kts 341°
2026-04-17 15:34 -26.91034 17.73250 34943 ft 439 kts 341°
2026-04-17 15:34 -26.84959 17.72247 34949 ft 440 kts 341°
2026-04-17 15:35 -26.78868 17.71242 34951 ft 440 kts 342°
2026-04-17 15:35 -26.72829 17.70249 34955 ft 440 kts 341°
2026-04-17 15:36 -26.66735 17.69246 34951 ft 442 kts 342°
2026-04-17 15:36 -26.60698 17.68256 34955 ft 439 kts 342°
2026-04-17 15:37 -26.54590 17.67252 34961 ft 440 kts 342°
2026-04-17 15:37 -26.48516 17.66255 34956 ft 442 kts 342°
2026-04-17 15:38 -26.42444 17.65262 34951 ft 440 kts 341°
2026-04-17 15:38 -26.36356 17.64253 34960 ft 444 kts 341°
2026-04-17 15:39 -26.30310 17.63261 34957 ft 440 kts 342°
2026-04-17 15:39 -26.24225 17.62262 34962 ft 442 kts 341°
2026-04-17 15:40 -26.18153 17.61270 34967 ft 439 kts 342°
2026-04-17 15:40 -26.12072 17.60281 34962 ft 443 kts 342°
2026-04-17 15:41 -26.05958 17.59294 34964 ft 443 kts 343°
2026-04-17 15:41 -25.99877 17.58312 34974 ft 441 kts 343°
2026-04-17 15:42 -25.93732 17.57314 34969 ft 445 kts 343°
2026-04-17 15:42 -25.87895 17.56370 34982 ft 442 kts 342°
2026-04-17 15:43 -25.81799 17.55380 34991 ft 443 kts 343°
2026-04-17 15:43 -25.75695 17.54392 35001 ft 444 kts 343°
2026-04-17 15:44 -25.69543 17.53396 35002 ft 444 kts 343°
2026-04-17 15:44 -25.63506 17.52420 35001 ft 444 kts 343°
2026-04-17 15:45 -25.57449 17.51441 35009 ft 444 kts 343°
2026-04-17 15:45 -25.51320 17.50453 35005 ft 444 kts 343°
2026-04-17 15:46 -25.45219 17.49469 35010 ft 444 kts 343°
2026-04-17 15:46 -25.39064 17.48477 35007 ft 446 kts 343°
2026-04-17 15:47 -25.32917 17.47489 35012 ft 444 kts 343°
2026-04-17 15:47 -25.26794 17.46504 35006 ft 446 kts 343°
2026-04-17 15:48 -25.20634 17.45515 35010 ft 447 kts 343°
2026-04-17 15:48 -25.14496 17.44531 35020 ft 445 kts 343°
2026-04-17 15:49 -25.08373 17.43550 35023 ft 444 kts 343°
2026-04-17 15:49 -25.02328 17.42583 35029 ft 446 kts 343°
2026-04-17 15:50 -24.96184 17.41605 35029 ft 445 kts 344°
2026-04-17 15:50 -24.90038 17.40624 35022 ft 448 kts 344°
2026-04-17 15:51 -24.83876 17.39641 35027 ft 448 kts 344°
2026-04-17 15:51 -24.77697 17.38655 35029 ft 448 kts 344°
2026-04-17 15:52 -24.71559 17.37678 35032 ft 445 kts 344°
2026-04-17 15:52 -24.65403 17.36696 35030 ft 447 kts 344°
2026-04-17 15:53 -24.59235 17.35714 35039 ft 449 kts 344°
2026-04-17 15:53 -24.53080 17.34737 35048 ft 447 kts 345°
2026-04-17 15:54 -24.46881 17.33753 35057 ft 447 kts 345°
2026-04-17 15:54 -24.40733 17.32779 35061 ft 451 kts 345°
2026-04-17 15:55 -24.34522 17.31803 35061 ft 448 kts 345°
2026-04-17 15:55 -24.28342 17.30832 35059 ft 448 kts 345°
2026-04-17 15:56 -24.22156 17.29860 35065 ft 449 kts 345°
2026-04-17 15:56 -24.15949 17.28886 35064 ft 448 kts 345°
2026-04-17 15:57 -24.09775 17.27918 35068 ft 449 kts 345°
2026-04-17 15:57 -24.03593 17.26949 35071 ft 450 kts 345°
2026-04-17 15:58 -23.97388 17.25978 35074 ft 451 kts 345°
2026-04-17 15:58 -23.91150 17.25003 35067 ft 450 kts 345°
2026-04-17 15:59 -23.84953 17.24036 35069 ft 448 kts 345°
2026-04-17 15:59 -23.78751 17.23067 35084 ft 451 kts 345°
2026-04-17 16:00 -23.72548 17.22102 35071 ft 448 kts 345°
2026-04-17 16:00 -23.66367 17.21137 35078 ft 451 kts 345°
2026-04-17 16:01 -23.60172 17.20152 35087 ft 449 kts 344°
2026-04-17 16:01 -23.53961 17.19148 35087 ft 450 kts 345°
2026-04-17 16:02 -23.47739 17.18146 35093 ft 451 kts 345°
2026-04-17 16:02 -23.41543 17.17150 35098 ft 449 kts 345°
2026-04-17 16:03 -23.35315 17.16144 35100 ft 451 kts 345°
2026-04-17 16:03 -23.29097 17.15142 35106 ft 453 kts 345°
2026-04-17 16:04 -23.22861 17.14146 35118 ft 453 kts 346°
2026-04-17 16:04 -23.16454 17.14301 35122 ft 469 kts
2026-04-17 16:05 -23.10154 17.16525 35134 ft 486 kts 17°
2026-04-17 16:05 -23.04003 17.19560 35147 ft 485 kts 17°
2026-04-17 16:06 -22.97853 17.22593 35155 ft 485 kts 17°
2026-04-17 16:06 -22.91681 17.25624 35150 ft 487 kts 17°
2026-04-17 16:07 -22.85485 17.28659 35151 ft 487 kts 17°
2026-04-17 16:07 -22.79332 17.31667 35159 ft 487 kts 17°
2026-04-17 16:08 -22.73147 17.34687 35147 ft 485 kts 17°
2026-04-17 16:08 -22.66988 17.37688 35139 ft 488 kts 17°
2026-04-17 16:09 -22.60798 17.40704 35140 ft 487 kts 17°
2026-04-17 16:09 -22.54619 17.43710 35127 ft 487 kts 17°
2026-04-17 16:10 -22.48312 17.46015 35110 ft 471 kts
2026-04-17 16:10 -22.41901 17.46232 35114 ft 456 kts 347°
2026-04-17 16:11 -22.35583 17.45481 35114 ft 454 kts 347°
2026-04-17 16:11 -22.29263 17.44696 35132 ft 458 kts 347°
2026-04-17 16:12 -22.22961 17.43907 35142 ft 455 kts 346°
2026-04-17 16:12 -22.16637 17.43113 35151 ft 455 kts 346°
2026-04-17 16:13 -22.10356 17.42322 35159 ft 457 kts 346°
2026-04-17 16:13 -22.04020 17.41524 35158 ft 455 kts 346°
2026-04-17 16:14 -21.94602 17.40337 35158 ft 458 kts 346°
2026-04-17 16:14 -21.88259 17.39539 35159 ft 456 kts 347°
2026-04-17 16:15 -21.81926 17.38742 35157 ft 458 kts 346°
2026-04-17 16:15 -21.75598 17.37948 35146 ft 457 kts 347°
2026-04-17 16:16 -21.69249 17.37151 35141 ft 457 kts 346°
2026-04-17 16:16 -21.62927 17.36358 35137 ft 459 kts 347°
2026-04-17 16:17 -21.56592 17.35564 35133 ft 459 kts 346°
2026-04-17 16:17 -21.50234 17.34768 35123 ft 460 kts 347°
2026-04-17 16:18 -21.43853 17.33969 35113 ft 460 kts 347°
2026-04-17 16:18 -21.37463 17.33172 35110 ft 458 kts 347°
2026-04-17 16:19 -21.31109 17.32377 35108 ft 461 kts 346°
2026-04-17 16:19 -21.24750 17.31582 35107 ft 461 kts 347°
2026-04-17 16:20 -21.18344 17.30782 35107 ft 462 kts 347°
2026-04-17 16:20 -21.11964 17.29989 35102 ft 461 kts 347°
2026-04-17 16:21 -21.05569 17.29192 35092 ft 460 kts 347°
2026-04-17 16:21 -20.99178 17.28396 35091 ft 462 kts 346°
2026-04-17 16:22 -20.92834 17.27608 35096 ft 460 kts 346°
2026-04-17 16:22 -20.86449 17.26815 35097 ft 462 kts 346°
2026-04-17 16:23 -20.80018 17.26017 35095 ft 460 kts 346°
2026-04-17 16:23 -20.73651 17.25226 35097 ft 460 kts 346°
2026-04-17 16:24 -20.67278 17.24435 35106 ft 462 kts 346°
2026-04-17 16:24 -20.60895 17.23643 35114 ft 462 kts 346°
2026-04-17 16:25 -20.54464 17.22846 35130 ft 463 kts 346°
2026-04-17 16:25 -20.48089 17.22057 35139 ft 464 kts 346°
2026-04-17 16:26 -20.41687 17.21265 35137 ft 464 kts 347°
2026-04-17 16:26 -20.35254 17.20470 35135 ft 464 kts 346°
2026-04-17 16:27 -20.28814 17.19674 35129 ft 463 kts 346°
2026-04-17 16:27 -20.22399 17.18884 35122 ft 463 kts 346°
2026-04-17 16:28 -20.15946 17.18088 35124 ft 463 kts 347°
2026-04-17 16:28 -20.09494 17.17291 35126 ft 465 kts 346°
2026-04-17 16:29 -20.03086 17.16503 35128 ft 465 kts 346°
2026-04-17 16:29 -19.96623 17.15709 35128 ft 467 kts 347°
2026-04-17 16:30 -19.90164 17.14917 35120 ft 466 kts 347°
2026-04-17 16:30 -19.83670 17.14119 35115 ft 467 kts 346°
2026-04-17 16:31 -19.77205 17.13324 35108 ft 467 kts 346°
2026-04-17 16:31 -19.70756 17.12534 35100 ft 467 kts 347°
2026-04-17 16:32 -19.64270 17.11739 35091 ft 468 kts 347°
2026-04-17 16:32 -19.57812 17.10948 35087 ft 470 kts 347°
2026-04-17 16:33 -19.51263 17.10146 35078 ft 472 kts 347°
2026-04-17 16:33 -19.44773 17.09354 35077 ft 469 kts 347°
2026-04-17 16:34 -19.38224 17.08554 35060 ft 470 kts 347°
2026-04-17 16:34 -19.31689 17.07756 35045 ft 473 kts 347°
2026-04-17 16:35 -19.25144 17.06959 35030 ft 473 kts 347°
2026-04-17 16:35 -19.18620 17.06165 35027 ft 473 kts 347°
2026-04-17 16:36 -19.12051 17.05374 35020 ft 473 kts 347°
2026-04-17 16:36 -19.05486 17.04602 35024 ft 476 kts 347°
2026-04-17 16:37 -18.98940 17.03833 35027 ft 475 kts 347°
2026-04-17 16:37 -18.92375 17.03062 35026 ft 474 kts 348°
2026-04-17 16:38 -18.85792 17.02289 35018 ft 475 kts 347°
2026-04-17 16:38 -18.79196 17.01515 35012 ft 475 kts 347°
2026-04-17 16:39 -18.72591 17.00739 35010 ft 477 kts 348°
2026-04-17 16:39 -18.66012 16.99969 35011 ft 475 kts 347°
2026-04-17 16:40 -18.59452 16.99199 35012 ft 476 kts 347°
2026-04-17 16:40 -18.52849 16.98426 35013 ft 476 kts 348°
2026-04-17 16:41 -18.46270 16.97657 35012 ft 476 kts 348°
2026-04-17 16:41 -18.39653 16.96883 35011 ft 479 kts 347°
2026-04-17 16:42 -18.33002 16.96108 35015 ft 478 kts 348°
2026-04-17 16:42 -18.26389 16.95340 35014 ft 478 kts 348°
2026-04-17 16:43 -18.19762 16.94568 35016 ft 480 kts 348°
2026-04-17 16:43 -18.13137 16.93798 35013 ft 479 kts 348°
2026-04-17 16:44 -18.06456 16.93021 35015 ft 480 kts 348°
2026-04-17 16:44 -17.99837 16.92251 35013 ft 479 kts 348°
2026-04-17 16:45 -17.93177 16.91477 35018 ft 480 kts 348°
2026-04-17 16:45 -17.86489 16.90700 35012 ft 480 kts 348°
2026-04-17 16:46 -17.79846 16.89929 35017 ft 483 kts 348°
2026-04-17 16:46 -17.73162 16.89154 35013 ft 480 kts 348°
2026-04-17 16:47 -17.66501 16.88381 35019 ft 483 kts 348°
2026-04-17 16:47 -17.59830 16.87609 35032 ft 482 kts 348°
2026-04-17 16:48 -17.53267 16.86850 35025 ft 480 kts 348°
2026-04-17 16:48 -17.46552 16.86072 35022 ft 483 kts 348°
2026-04-17 16:49 -17.39902 16.85305 35016 ft 483 kts 348°
2026-04-17 16:49 -17.33175 16.84521 35013 ft 484 kts 348°
2026-04-17 16:50 -17.26451 16.83738 35008 ft 484 kts 348°
2026-04-17 16:50 -17.19775 16.82960 35014 ft 483 kts 348°
2026-04-17 16:51 -17.13039 16.82175 35009 ft 483 kts 348°
2026-04-17 16:51 -17.06358 16.81398 35008 ft 483 kts 348°
2026-04-17 16:52 -16.99618 16.80614 35011 ft 486 kts 348°
2026-04-17 16:52 -16.92910 16.79835 35016 ft 485 kts 348°
2026-04-17 16:53 -16.86167 16.79052 35013 ft 485 kts 348°
2026-04-17 16:53 -16.79487 16.78278 35012 ft 484 kts 348°
2026-04-17 16:54 -16.72718 16.77492 35019 ft 487 kts 348°
2026-04-17 16:54 -16.66018 16.76717 35027 ft 485 kts 348°
2026-04-17 16:55 -16.59258 16.75934 35025 ft 486 kts 348°
2026-04-17 16:55 -16.52562 16.75159 35027 ft 486 kts 348°
2026-04-17 16:56 -16.45795 16.74377 35028 ft 488 kts 348°
2026-04-17 16:56 -16.39055 16.73599 35026 ft 486 kts 349°
2026-04-17 16:57 -16.32294 16.72819 35028 ft 486 kts 349°
2026-04-17 16:57 -16.25549 16.72041 35030 ft 488 kts 349°
2026-04-17 16:58 -16.18799 16.71263 35036 ft 488 kts 348°
2026-04-17 16:58 -16.12033 16.70484 35039 ft 487 kts 349°
2026-04-17 16:59 -16.05265 16.69705 35044 ft 487 kts 349°
2026-04-17 16:59 -15.98545 16.68932 35047 ft 487 kts 349°
2026-04-17 17:00 -15.91780 16.68154 35051 ft 489 kts 349°
2026-04-17 17:00 -15.84985 16.67373 35054 ft 489 kts 349°
2026-04-17 17:01 -15.78208 16.66595 35056 ft 490 kts 349°
2026-04-17 17:01 -15.71467 16.65822 35063 ft 487 kts 349°
2026-04-17 17:02 -15.64680 16.65044 35067 ft 488 kts 349°
2026-04-17 17:02 -15.57963 16.64275 35074 ft 487 kts 349°
2026-04-17 17:03 -15.51196 16.63500 35082 ft 488 kts 349°
2026-04-17 17:03 -15.44432 16.62726 35079 ft 487 kts 349°
2026-04-17 17:04 -15.37644 16.61950 35085 ft 488 kts 349°
2026-04-17 17:04 -15.30826 16.61170 35094 ft 489 kts 349°
2026-04-17 17:05 -15.24028 16.60394 35098 ft 489 kts 349°
2026-04-17 17:05 -15.17270 16.59624 35103 ft 488 kts 349°
2026-04-17 17:06 -15.10503 16.58865 35105 ft 488 kts 349°
2026-04-17 17:06 -15.03733 16.58107 35106 ft 489 kts 349°
2026-04-17 17:07 -14.96989 16.57353 35109 ft 488 kts 350°
2026-04-17 17:07 -14.90207 16.56594 35111 ft 487 kts 349°
2026-04-17 17:08 -14.83442 16.55837 35114 ft 490 kts 349°
2026-04-17 17:08 -14.76651 16.55079 35119 ft 488 kts 350°
2026-04-17 17:09 -14.69899 16.54325 35118 ft 488 kts 350°
2026-04-17 17:09 -14.63122 16.53569 35120 ft 489 kts 350°
2026-04-17 17:10 -14.56325 16.52811 35125 ft 487 kts 350°
2026-04-17 17:10 -14.49576 16.52058 35122 ft 488 kts 350°
2026-04-17 17:11 -14.42822 16.51306 35130 ft 486 kts 350°
2026-04-17 17:11 -14.36052 16.50552 35138 ft 487 kts 350°
2026-04-17 17:12 -14.29287 16.49800 35152 ft 487 kts 350°
2026-04-17 17:12 -14.22534 16.49049 35155 ft 488 kts 350°
2026-04-17 17:13 -14.15769 16.48297 35165 ft 488 kts 350°
2026-04-17 17:13 -14.08983 16.47543 35164 ft 486 kts 350°
2026-04-17 17:14 -14.02241 16.46795 35166 ft 487 kts 350°
2026-04-17 17:15 -13.92116 16.45672 35169 ft 486 kts 351°
2026-04-17 17:15 -13.85339 16.44921 35161 ft 487 kts 351°
2026-04-17 17:16 -13.78632 16.44177 35161 ft 487 kts 351°
2026-04-17 17:16 -13.71848 16.43426 35160 ft 485 kts 351°
2026-04-17 17:17 -13.65127 16.42683 35165 ft 484 kts 351°
2026-04-17 17:17 -13.58413 16.41941 35169 ft 485 kts 351°
2026-04-17 17:18 -13.51674 16.41197 35173 ft 483 kts 351°
2026-04-17 17:18 -13.44980 16.40457 35173 ft 484 kts 351°
2026-04-17 17:19 -13.38253 16.39714 35172 ft 483 kts 351°
2026-04-17 17:19 -13.31529 16.38973 35178 ft 483 kts 351°
2026-04-17 17:20 -13.24864 16.38238 35187 ft 482 kts 351°
2026-04-17 17:20 -13.18195 16.37503 35188 ft 481 kts 351°
2026-04-17 17:21 -13.11497 16.36765 35193 ft 482 kts 351°
2026-04-17 17:21 -13.04818 16.36030 35192 ft 482 kts 351°
2026-04-17 17:22 -12.98156 16.35297 35193 ft 481 kts 352°
2026-04-17 17:22 -12.91413 16.34555 35486 ft 489 kts 352°
2026-04-17 17:22 -12.88018 16.34182 36351 ft 484 kts 352°
2026-04-17 17:23 -12.84677 16.33816 37118 ft 481 kts 352°
2026-04-17 17:23 -12.78054 16.33088 37201 ft 476 kts 352°
2026-04-17 17:24 -12.71488 16.32368 37199 ft 473 kts 352°
2026-04-17 17:24 -12.64818 16.31634 37199 ft 476 kts 352°
2026-04-17 17:25 -12.58216 16.30911 37203 ft 475 kts 352°
2026-04-17 17:25 -12.51584 16.30184 37199 ft 477 kts 352°
2026-04-17 17:26 -12.44973 16.29459 37194 ft 478 kts 352°
2026-04-17 17:26 -12.38362 16.28736 37195 ft 476 kts 352°
2026-04-17 17:27 -12.31774 16.28015 37198 ft 474 kts 353°
2026-04-17 17:27 -12.25150 16.27290 37195 ft 475 kts 353°
2026-04-17 17:28 -12.18548 16.26582 37191 ft 475 kts 353°
2026-04-17 17:28 -12.11933 16.25882 37194 ft 477 kts 353°
2026-04-17 17:29 -12.05315 16.25181 37190 ft 478 kts 353°
2026-04-17 17:29 -11.98706 16.24481 37184 ft 478 kts 353°
2026-04-17 17:30 -11.92084 16.23780 37178 ft 477 kts 353°
2026-04-17 17:30 -11.85435 16.23076 37179 ft 476 kts 353°
2026-04-17 17:31 -11.78841 16.22378 37174 ft 475 kts 353°
2026-04-17 17:31 -11.72257 16.21681 37173 ft 476 kts 353°
2026-04-17 17:32 -11.65617 16.20979 37172 ft 477 kts 353°
2026-04-17 17:32 -11.59018 16.20282 37177 ft 478 kts 353°
2026-04-17 17:33 -11.52352 16.19578 37181 ft 479 kts 353°
2026-04-17 17:33 -11.45719 16.18877 37184 ft 478 kts 353°
2026-04-17 17:34 -11.39103 16.18178 37188 ft 478 kts 353°
2026-04-17 17:34 -11.32447 16.17476 37192 ft 479 kts 353°
2026-04-17 17:35 -11.25810 16.16776 37182 ft 479 kts 353°
2026-04-17 17:35 -11.19140 16.16073 37200 ft 481 kts 353°
2026-04-17 17:36 -11.12457 16.15368 37196 ft 480 kts 353°
2026-04-17 17:36 -11.05819 16.14669 37194 ft 481 kts 353°
2026-04-17 17:37 -10.99132 16.13964 37192 ft 481 kts 353°
2026-04-17 17:37 -10.92431 16.13258 37185 ft 481 kts 353°
2026-04-17 17:38 -10.85768 16.12491 37174 ft 480 kts 352°
2026-04-17 17:38 -10.79126 16.11690 37173 ft 481 kts 352°
2026-04-17 17:39 -10.72436 16.10886 37170 ft 481 kts 352°
2026-04-17 17:39 -10.65760 16.10086 37152 ft 481 kts 352°
2026-04-17 17:40 -10.59130 16.09292 37127 ft 481 kts 352°
2026-04-17 17:40 -10.52472 16.08497 37122 ft 480 kts 352°
2026-04-17 17:41 -10.45818 16.07701 37109 ft 481 kts 352°
2026-04-17 17:41 -10.39139 16.06904 37099 ft 482 kts 352°
2026-04-17 17:42 -10.32453 16.06106 37093 ft 482 kts 352°
2026-04-17 17:42 -10.25768 16.05308 37090 ft 482 kts 352°
2026-04-17 17:43 -10.19120 16.04516 37076 ft 483 kts 352°
2026-04-17 17:43 -10.12425 16.03719 37054 ft 482 kts 352°
2026-04-17 17:44 -10.05745 16.02943 37043 ft 481 kts 353°
2026-04-17 17:44 -9.99058 16.02213 37029 ft 481 kts 353°
2026-04-17 17:45 -9.92372 16.01483 37029 ft 481 kts 353°
2026-04-17 17:45 -9.85677 16.00750 37025 ft 482 kts 353°
2026-04-17 17:46 -9.78985 16.00017 37026 ft 483 kts 353°
2026-04-17 17:46 -9.72320 15.99287 37018 ft 482 kts 353°
2026-04-17 17:47 -9.65622 15.98552 37024 ft 482 kts 353°
2026-04-17 17:47 -9.58951 15.97822 37026 ft 480 kts 353°
2026-04-17 17:48 -9.52272 15.97091 37031 ft 479 kts 353°
2026-04-17 17:48 -9.45611 15.96362 37031 ft 480 kts 353°
2026-04-17 17:49 -9.38985 15.95637 37027 ft 480 kts 353°
2026-04-17 17:49 -9.32342 15.94912 37024 ft 479 kts 353°
2026-04-17 17:50 -9.25693 15.94186 37023 ft 480 kts 353°
2026-04-17 17:50 -9.19036 15.93460 37023 ft 479 kts 353°
2026-04-17 17:51 -9.12369 15.92733 37024 ft 479 kts 353°
2026-04-17 17:51 -9.05705 15.92007 37027 ft 477 kts 353°
2026-04-17 17:52 -8.99096 15.91287 37024 ft 476 kts 353°
2026-04-17 17:52 -8.92468 15.90564 37024 ft 478 kts 353°
2026-04-17 17:53 -8.85841 15.89842 37026 ft 479 kts 353°
2026-04-17 17:53 -8.79192 15.89119 37029 ft 478 kts 353°
2026-04-17 17:54 -8.72556 15.88397 37032 ft 478 kts 353°
2026-04-17 17:54 -8.65941 15.87678 37030 ft 478 kts 353°
2026-04-17 17:55 -8.59331 15.86960 37038 ft 477 kts 353°
2026-04-17 17:55 -8.52703 15.86240 37042 ft 478 kts 353°
2026-04-17 17:56 -8.46087 15.85521 37043 ft 478 kts 353°
2026-04-17 17:56 -8.39411 15.84796 37032 ft 478 kts 353°
2026-04-17 17:57 -8.32788 15.84075 37025 ft 478 kts 353°
2026-04-17 17:57 -8.26186 15.83354 37013 ft 478 kts 353°
2026-04-17 17:58 -8.19539 15.82629 37004 ft 477 kts 353°
2026-04-17 17:58 -8.12954 15.81911 37002 ft 477 kts 353°
2026-04-17 17:59 -8.06319 15.81187 36999 ft 477 kts 353°
2026-04-17 17:59 -7.99675 15.80467 36996 ft 478 kts 353°
2026-04-17 18:00 -7.94145 15.79870 36997 ft 479 kts 353°
2026-04-17 18:00 -7.86424 15.79036 37005 ft 478 kts 353°
2026-04-17 18:01 -7.79797 15.78321 37017 ft 477 kts 353°
2026-04-17 18:01 -7.73180 15.77607 37032 ft 477 kts 353°
2026-04-17 18:02 -7.66536 15.76965 37022 ft 477 kts 359°
2026-04-17 18:02 -7.59898 15.77598 37023 ft 481 kts
2026-04-17 18:03 -7.53267 15.78584 37021 ft 482 kts
2026-04-17 18:03 -7.46615 15.79575 37018 ft 483 kts
2026-04-17 18:04 -7.39971 15.80562 37018 ft 482 kts
2026-04-17 18:04 -7.33281 15.81556 37014 ft 482 kts
2026-04-17 18:05 -7.26643 15.82541 37012 ft 483 kts
2026-04-17 18:05 -7.19983 15.83530 37009 ft 482 kts
2026-04-17 18:06 -7.13328 15.84517 37007 ft 482 kts
2026-04-17 18:06 -7.06652 15.85506 36996 ft 481 kts
2026-04-17 18:07 -7.00045 15.86486 36986 ft 478 kts
2026-04-17 18:07 -6.93448 15.87463 36980 ft 479 kts
2026-04-17 18:08 -6.86847 15.88441 36976 ft 480 kts
2026-04-17 18:08 -6.80202 15.89425 36969 ft 480 kts
2026-04-17 18:09 -6.73559 15.90409 36962 ft 481 kts
2026-04-17 18:09 -6.66930 15.91390 36965 ft 481 kts
2026-04-17 18:10 -6.60288 15.92372 36969 ft 481 kts
2026-04-17 18:10 -6.53658 15.93353 36969 ft 482 kts
2026-04-17 18:11 -6.46997 15.94338 36970 ft 482 kts
2026-04-17 18:11 -6.40336 15.95323 36964 ft 483 kts
2026-04-17 18:12 -6.33661 15.96310 36964 ft 483 kts
2026-04-17 18:12 -6.30321 15.96803 36800 ft 478 kts
2026-04-17 18:12 -6.27039 15.97288 36014 ft 480 kts
2026-04-17 18:12 -6.23721 15.97779 35270 ft 480 kts
2026-04-17 18:13 -6.20392 15.98270 34570 ft 479 kts
2026-04-17 18:13 -6.17105 15.98756 33806 ft 480 kts
2026-04-17 18:13 -6.13780 15.99247 33035 ft 480 kts
2026-04-17 18:13 -6.10490 15.99732 32287 ft 480 kts
2026-04-17 18:14 -6.07169 16.00223 31502 ft 481 kts
2026-04-17 18:14 -6.03833 16.00716 30701 ft 482 kts
2026-04-17 18:14 -6.00551 16.01199 30220 ft 476 kts
2026-04-17 18:14 -5.97276 16.01683 29763 ft 470 kts
2026-04-17 18:15 -5.94013 16.02164 29274 ft 479 kts
2026-04-17 18:15 -5.90677 16.02657 28731 ft 485 kts
2026-04-17 18:15 -5.87342 16.03149 28197 ft 482 kts
2026-04-17 18:15 -5.84002 16.03641 27654 ft 478 kts
2026-04-17 18:16 -5.80718 16.04126 27114 ft 474 kts
2026-04-17 18:16 -5.77489 16.04602 26577 ft 469 kts
2026-04-17 18:16 -5.74263 16.05078 26022 ft 465 kts
2026-04-17 18:16 -5.71064 16.05549 25468 ft 461 kts
2026-04-17 18:17 -5.67886 16.06018 24713 ft 456 kts
2026-04-17 18:17 -5.61666 16.06935 23988 ft 446 kts
2026-04-17 18:17 -5.58593 16.07312 23598 ft 447 kts
2026-04-17 18:18 -5.55451 16.07225 22762 ft 450 kts 353°
2026-04-17 18:18 -5.52415 16.06602 22065 ft 450 kts 343°
2026-04-17 18:18 -5.49510 16.05458 21432 ft 447 kts 334°
2026-04-17 18:18 -5.46779 16.03917 20840 ft 443 kts 329°
2026-04-17 18:19 -5.44149 16.02341 20278 ft 438 kts 329°
2026-04-17 18:19 -5.41554 16.00773 19715 ft 431 kts 329°
2026-04-17 18:19 -5.39001 15.99227 19177 ft 423 kts 329°
2026-04-17 18:19 -5.36497 15.97708 18655 ft 416 kts 329°
2026-04-17 18:20 -5.34031 15.96210 18133 ft 413 kts 329°
2026-04-17 18:20 -5.31586 15.94724 17606 ft 410 kts 329°
2026-04-17 18:20 -5.29168 15.93254 17083 ft 407 kts 329°
2026-04-17 18:20 -5.26741 15.91776 16551 ft 404 kts 329°
2026-04-17 18:21 -5.24348 15.90321 16025 ft 401 kts 329°
2026-04-17 18:21 -5.21970 15.88874 15494 ft 399 kts 329°
2026-04-17 18:21 -5.19611 15.87438 14961 ft 396 kts 329°
2026-04-17 18:21 -5.17258 15.86005 14426 ft 394 kts 329°
2026-04-17 18:22 -5.14927 15.84586 13894 ft 391 kts 329°
2026-04-17 18:22 -5.12601 15.83171 13360 ft 389 kts 329°
2026-04-17 18:22 -5.10293 15.81765 12832 ft 386 kts 329°
2026-04-17 18:22 -5.08004 15.80372 12307 ft 384 kts 329°
2026-04-17 18:23 -5.05725 15.78985 11780 ft 381 kts 329°
2026-04-17 18:23 -5.03450 15.77600 11255 ft 378 kts 329°
2026-04-17 18:23 -5.01213 15.76239 10924 ft 370 kts 329°
2026-04-17 18:23 -4.99040 15.74916 10741 ft 357 kts 329°
2026-04-17 18:24 -4.96967 15.73655 10577 ft 345 kts 329°
2026-04-17 18:24 -4.94936 15.72419 10428 ft 334 kts 329°
2026-04-17 18:24 -4.92978 15.71228 10277 ft 322 kts 329°
2026-04-17 18:24 -4.91100 15.70086 10147 ft 309 kts 329°
2026-04-17 18:25 -4.89279 15.68979 10078 ft 295 kts 329°
2026-04-17 18:25 -4.87572 15.67941 10062 ft 282 kts 330°
2026-04-17 18:25 -4.85880 15.66913 9625 ft 286 kts 330°
2026-04-17 18:25 -4.84158 15.65866 9124 ft 289 kts 330°
2026-04-17 18:26 -4.82437 15.64819 8733 ft 286 kts 329°
2026-04-17 18:26 -4.80759 15.63799 8385 ft 282 kts 329°
2026-04-17 18:26 -4.79090 15.62784 8048 ft 278 kts 329°
2026-04-17 18:26 -4.77445 15.61783 7715 ft 274 kts 329°
2026-04-17 18:27 -4.75810 15.60789 7396 ft 273 kts 329°
2026-04-17 18:27 -4.74170 15.59792 7053 ft 273 kts 329°
2026-04-17 18:27 -4.72562 15.58815 6723 ft 273 kts 329°
2026-04-17 18:27 -4.70932 15.57824 6394 ft 273 kts 329°
2026-04-17 18:28 -4.69292 15.56827 6062 ft 273 kts 329°
2026-04-17 18:28 -4.67664 15.55837 5732 ft 273 kts 329°
2026-04-17 18:28 -4.66038 15.54849 5414 ft 272 kts 329°
2026-04-17 18:28 -4.64431 15.53873 5198 ft 267 kts 329°
2026-04-17 18:29 -4.62865 15.52921 5050 ft 264 kts 329°
2026-04-17 18:29 -4.61381 15.51808 5021 ft 267 kts 309°
2026-04-17 18:29 -4.60494 15.50164 5029 ft 269 kts 288°
2026-04-17 18:29 -4.60014 15.48375 5027 ft 269 kts 283°
2026-04-17 18:30 -4.59608 15.46529 5026 ft 269 kts 282°
2026-04-17 18:30 -4.59215 15.44690 5026 ft 269 kts 282°
2026-04-17 18:30 -4.58822 15.42858 5027 ft 269 kts 282°
2026-04-17 18:30 -4.58429 15.41026 5027 ft 269 kts 282°
2026-04-17 18:31 -4.58039 15.39213 5028 ft 269 kts 282°
2026-04-17 18:31 -4.57647 15.37388 5026 ft 265 kts 282°
2026-04-17 18:31 -4.57266 15.35614 5024 ft 253 kts 282°
2026-04-17 18:31 -4.56905 15.33935 5045 ft 238 kts 283°
2026-04-17 18:32 -4.56254 15.32422 4970 ft 236 kts 307°
2026-04-17 18:32 -4.55043 15.31354 4770 ft 235 kts 332°
2026-04-17 18:32 -4.53547 15.30665 4520 ft 234 kts 337°
2026-04-17 18:32 -4.52046 15.30041 4384 ft 229 kts 338°
2026-04-17 18:33 -4.50561 15.29481 4307 ft 227 kts 349°
2026-04-17 18:33 -4.49082 15.29572 4212 ft 200 kts 21°
2026-04-17 18:33 -4.47948 15.30333 4088 ft 195 kts 45°
2026-04-17 18:33 -4.47079 15.31365 3748 ft 190 kts 52°
2026-04-17 18:34 -4.46330 15.32420 3465 ft 183 kts 56°
2026-04-17 18:34 -4.45645 15.33468 3203 ft 177 kts 57°
2026-04-17 18:34 -4.44993 15.34481 2970 ft 166 kts 57°
2026-04-17 18:34 -4.44392 15.35414 2740 ft 152 kts 57°
2026-04-17 18:35 -4.43827 15.36293 2529 ft 149 kts 58°
2026-04-17 18:35 -4.43264 15.37168 2328 ft 148 kts 57°
2026-04-17 18:35 -4.42700 15.38040 2131 ft 149 kts 57°
2026-04-17 18:35 -4.42137 15.38915 1928 ft 147 kts 57°
2026-04-17 18:36 -4.41590 15.39765 1739 ft 147 kts 57°
2026-04-17 18:36 -4.41021 15.40644 1554 ft 150 kts 57°
2026-04-17 18:36 -4.40458 15.41517 1353 ft 151 kts 57°
2026-04-17 18:36 -4.39890 15.42403 1139 ft 150 kts 57°
2026-04-17 18:37 -4.39337 15.43262 1041 ft 133 kts 57°
2026-04-17 18:37 -4.38914 15.43909 1040 ft 90 kts 56°
2026-04-17 18:37 -4.38653 15.44309 1040 ft 46 kts 58°
2026-04-17 18:37 -4.38585 15.44432 1040 ft 11 kts 85°
2026-04-17 18:38 -4.38624 15.44490 1040 ft 9 kts 144°
2026-04-17 18:38 -4.38678 15.44525 1040 ft 8 kts 149°
2026-04-17 18:38 -4.38728 15.44556 1040 ft 7 kts 141°
2026-04-17 18:38 -4.38748 15.44577 1040 ft 0 kts 140°
2026-04-17 18:39 -4.38762 15.44584 1040 ft 4 kts 161°
2026-04-17 18:39 -4.38798 15.44592 1040 ft 4 kts 177°
2026-04-17 18:39 -4.38826 15.44589 1040 ft 3 kts 192°
2026-04-17 18:39 -4.38829 15.44588 1040 ft 0 kts 192°